NPV3605 EGNX-LIPE

Flight info

Callsign NPV3605
Flight time 2h 0m
Altitude 33000
Route SAPCO Y53 DTY DCT SILVA UM605 BENSU Q70 BIG UL9 KONAN UL607 KOK M150 KOMOB DCT KRH DCT UTABA M738 BATUB DCT TIRUL M738 NATAG DCT LORLO DCT UNTAD DCT ADOSA M738 BENUS
Aircraft B77L/H-SDE1E2E3FGHIJ2J3J4J5M1RWXY/LB1D1

Departure

Time 2026-05-05 13:51
Airport East Midlands Airport (EGNX)

Arrival

Time 2026-05-05 15:52
Airport Bologna Guglielmo Marconi Airport (LIPE)
Time Latitude Longitude Altitude Speed Heading
2026-05-05 13:14 52.82749 -1.34954 305 ft 0 kts 178°
2026-05-05 13:35 52.82770 -1.34955 305 ft 4 kts 178°
2026-05-05 13:35 52.82794 -1.34956 305 ft 3 kts 178°
2026-05-05 13:35 52.82819 -1.34963 306 ft 4 kts 147°
2026-05-05 13:35 52.82832 -1.34992 307 ft 4 kts 93°
2026-05-05 13:36 52.82829 -1.35035 308 ft 4 kts 73°
2026-05-05 13:36 52.82823 -1.35073 305 ft 2 kts 88°
2026-05-05 13:36 52.82823 -1.35074 305 ft 1 kts 88°
2026-05-05 13:39 52.82824 -1.35020 305 ft 12 kts 88°
2026-05-05 13:39 52.82827 -1.34874 305 ft 13 kts 88°
2026-05-05 13:39 52.82830 -1.34727 305 ft 13 kts 88°
2026-05-05 13:39 52.82832 -1.34580 308 ft 13 kts 89°
2026-05-05 13:40 52.82840 -1.34448 305 ft 11 kts 62°
2026-05-05 13:40 52.82901 -1.34382 311 ft 11 kts 63°
2026-05-05 13:40 52.82907 -1.34254 306 ft 13 kts 93°
2026-05-05 13:40 52.82908 -1.34101 308 ft 13 kts 88°
2026-05-05 13:41 52.82911 -1.33918 312 ft 17 kts 88°
2026-05-05 13:41 52.82915 -1.33722 310 ft 17 kts 88°
2026-05-05 13:41 52.82919 -1.33526 311 ft 17 kts 88°
2026-05-05 13:41 52.82923 -1.33330 309 ft 17 kts 88°
2026-05-05 13:42 52.82927 -1.33125 308 ft 18 kts 88°
2026-05-05 13:42 52.82932 -1.32919 309 ft 18 kts 88°
2026-05-05 13:42 52.82935 -1.32712 307 ft 18 kts 89°
2026-05-05 13:42 52.82937 -1.32506 305 ft 18 kts 89°
2026-05-05 13:43 52.82940 -1.32300 305 ft 18 kts 88°
2026-05-05 13:43 52.82944 -1.32094 305 ft 18 kts 88°
2026-05-05 13:43 52.82949 -1.31888 307 ft 18 kts 88°
2026-05-05 13:43 52.82952 -1.31682 305 ft 18 kts 88°
2026-05-05 13:44 52.82956 -1.31476 307 ft 18 kts 88°
2026-05-05 13:44 52.82960 -1.31271 308 ft 17 kts 88°
2026-05-05 13:44 52.82962 -1.31156 308 ft 4 kts 88°
2026-05-05 13:44 52.82962 -1.31124 308 ft 2 kts 89°
2026-05-05 13:45 52.82963 -1.31104 305 ft 2 kts 89°
2026-05-05 13:45 52.82963 -1.31097 305 ft 0 kts 89°
2026-05-05 13:47 52.82963 -1.31085 308 ft 3 kts 89°
2026-05-05 13:47 52.82964 -1.31045 308 ft 4 kts 89°
2026-05-05 13:47 52.82964 -1.31023 305 ft 1 kts 89°
2026-05-05 13:47 52.82964 -1.31013 305 ft 0 kts 89°
2026-05-05 13:48 52.82964 -1.30997 305 ft 6 kts 89°
2026-05-05 13:48 52.82965 -1.30909 305 ft 8 kts 89°
2026-05-05 13:49 52.82968 -1.30819 305 ft 8 kts 82°
2026-05-05 13:49 52.82993 -1.30729 305 ft 9 kts 48°
2026-05-05 13:49 52.83048 -1.30683 308 ft 9 kts
2026-05-05 13:49 52.83113 -1.30684 308 ft 10 kts 352°
2026-05-05 13:50 52.83136 -1.30794 307 ft 18 kts 269°
2026-05-05 13:50 52.83130 -1.31173 311 ft 55 kts 268°
2026-05-05 13:50 52.83112 -1.32217 308 ft 126 kts 268°
2026-05-05 13:50 52.83083 -1.34005 311 ft 182 kts 268°
2026-05-05 13:51 52.83021 -1.36127 820 ft 185 kts 269°
2026-05-05 13:51 52.82897 -1.38278 1461 ft 191 kts 256°
2026-05-05 13:51 52.82120 -1.40104 1924 ft 201 kts 220°
2026-05-05 13:51 52.81042 -1.41569 2554 ft 202 kts 223°
2026-05-05 13:52 52.80007 -1.43142 3208 ft 201 kts 224°
2026-05-05 13:52 52.78968 -1.44750 3653 ft 215 kts 224°
2026-05-05 13:52 52.77809 -1.46552 3892 ft 244 kts 224°
2026-05-05 13:52 52.76429 -1.48367 4209 ft 260 kts 206°
2026-05-05 13:53 52.74639 -1.48897 4856 ft 268 kts 170°
2026-05-05 13:53 52.72886 -1.47897 5734 ft 268 kts 156°
2026-05-05 13:53 52.71144 -1.46712 6561 ft 273 kts 158°
2026-05-05 13:53 52.69372 -1.45543 7381 ft 277 kts 158°
2026-05-05 13:54 52.67570 -1.44344 8132 ft 283 kts 158°
2026-05-05 13:54 52.65728 -1.43113 8829 ft 288 kts 159°
2026-05-05 13:54 52.63851 -1.41905 9405 ft 291 kts 160°
2026-05-05 13:54 52.61960 -1.40716 10134 ft 292 kts 160°
2026-05-05 13:55 52.60097 -1.39274 10471 ft 306 kts 149°
2026-05-05 13:55 52.58292 -1.37289 10630 ft 327 kts 145°
2026-05-05 13:55 52.56400 -1.35002 10803 ft 348 kts 144°
2026-05-05 13:55 52.54401 -1.32554 10975 ft 368 kts 144°
2026-05-05 13:56 52.52307 -1.30018 11435 ft 379 kts 144°
2026-05-05 13:56 52.50153 -1.27448 12050 ft 385 kts 145°
2026-05-05 13:56 52.47970 -1.24875 12780 ft 388 kts 146°
2026-05-05 13:56 52.45760 -1.22297 13540 ft 390 kts 146°
2026-05-05 13:57 52.43533 -1.19712 14165 ft 395 kts 146°
2026-05-05 13:57 52.41273 -1.17109 14757 ft 399 kts 146°
2026-05-05 13:57 52.38996 -1.14495 15390 ft 402 kts 146°
2026-05-05 13:57 52.36695 -1.11860 16052 ft 405 kts 146°
2026-05-05 13:58 52.34374 -1.09202 16706 ft 409 kts 146°
2026-05-05 13:58 52.32032 -1.06526 17326 ft 413 kts 146°
2026-05-05 13:58 52.29665 -1.03824 17950 ft 417 kts 146°
2026-05-05 13:58 52.27281 -1.01106 18569 ft 419 kts 146°
2026-05-05 13:59 52.22491 -0.95648 19854 ft 422 kts 146°
2026-05-05 13:59 52.20074 -0.92904 20337 ft 426 kts 147°
2026-05-05 14:00 52.15164 -0.87341 21343 ft 433 kts 147°
2026-05-05 14:00 52.12674 -0.84530 21878 ft 437 kts 147°
2026-05-05 14:00 52.10172 -0.81704 22402 ft 440 kts 147°
2026-05-05 14:00 52.07646 -0.78851 22890 ft 443 kts 147°
2026-05-05 14:01 52.05106 -0.75989 23400 ft 447 kts 148°
2026-05-05 14:01 52.02535 -0.73098 23817 ft 451 kts 147°
2026-05-05 14:01 51.99954 -0.70198 24280 ft 452 kts 147°
2026-05-05 14:01 51.97363 -0.67292 24802 ft 453 kts 147°
2026-05-05 14:02 51.94773 -0.64389 25312 ft 454 kts 148°
2026-05-05 14:02 51.92201 -0.61510 25774 ft 456 kts 148°
2026-05-05 14:02 51.89590 -0.58595 26263 ft 458 kts 148°
2026-05-05 14:02 51.86960 -0.55664 26756 ft 459 kts 148°
2026-05-05 14:03 51.84325 -0.52730 27217 ft 461 kts 148°
2026-05-05 14:03 51.81678 -0.49786 27701 ft 463 kts 148°
2026-05-05 14:03 51.79022 -0.46835 28182 ft 463 kts 147°
2026-05-05 14:03 51.76363 -0.43885 28688 ft 464 kts 147°
2026-05-05 14:04 51.73709 -0.40948 29106 ft 466 kts 148°
2026-05-05 14:04 51.71037 -0.37972 29497 ft 465 kts 145°
2026-05-05 14:04 51.68712 -0.34299 29604 ft 478 kts 127°
2026-05-05 14:04 51.67273 -0.29428 29913 ft 488 kts 108°
2026-05-05 14:05 51.66617 -0.24066 30451 ft 488 kts 102°
2026-05-05 14:05 51.66048 -0.18699 30941 ft 484 kts 104°
2026-05-05 14:05 51.65255 -0.13443 31377 ft 481 kts 109°
2026-05-05 14:05 51.64213 -0.08336 31765 ft 480 kts 112°
2026-05-05 14:06 51.63139 -0.03831 32127 ft 479 kts 114°
2026-05-05 14:06 51.61879 0.01126 32480 ft 478 kts 115°
2026-05-05 14:06 51.60617 0.06086 32732 ft 481 kts 114°
2026-05-05 14:06 51.59370 0.11097 32919 ft 484 kts 114°
2026-05-05 14:07 51.57178 0.21396 32958 ft 494 kts 108°
2026-05-05 14:07 51.55402 0.31322 32969 ft 498 kts 108°
2026-05-05 14:08 51.53437 0.42007 32973 ft 500 kts 109°
2026-05-05 14:08 51.51442 0.52707 32955 ft 501 kts 109°
2026-05-05 14:09 51.49436 0.63425 32970 ft 501 kts 109°
2026-05-05 14:09 51.47424 0.74123 32965 ft 501 kts 109°
2026-05-05 14:10 51.45406 0.84786 32964 ft 499 kts 109°
2026-05-05 14:10 51.43376 0.95434 32959 ft 499 kts 109°
2026-05-05 14:11 51.41352 1.06013 32947 ft 495 kts 109°
2026-05-05 14:11 51.39336 1.16485 32951 ft 490 kts 109°
2026-05-05 14:12 51.37323 1.26878 32951 ft 488 kts 109°
2026-05-05 14:12 51.35311 1.37232 32946 ft 487 kts 109°
2026-05-05 14:13 51.33287 1.47571 32956 ft 487 kts 109°
2026-05-05 14:13 51.31267 1.57830 32945 ft 488 kts 110°
2026-05-05 14:14 51.29220 1.68183 32953 ft 490 kts 110°
2026-05-05 14:14 51.27153 1.78580 32945 ft 492 kts 110°
2026-05-05 14:15 51.25067 1.89002 32942 ft 493 kts 110°
2026-05-05 14:15 51.22976 1.99437 32945 ft 495 kts 110°
2026-05-05 14:16 51.20866 2.09886 32936 ft 495 kts 110°
2026-05-05 14:16 51.18739 2.20338 32933 ft 495 kts 110°
2026-05-05 14:17 51.16606 2.30775 32930 ft 496 kts 110°
2026-05-05 14:17 51.14463 2.41212 32930 ft 495 kts 110°
2026-05-05 14:18 51.12320 2.51604 32914 ft 493 kts 110°
2026-05-05 14:18 51.10180 2.61939 32911 ft 490 kts 111°
2026-05-05 14:19 51.07432 2.71771 32909 ft 485 kts 120°
2026-05-05 14:19 51.04233 2.81191 32916 ft 484 kts 121°
2026-05-05 14:20 51.01048 2.90601 32908 ft 483 kts 121°
2026-05-05 14:20 50.97887 2.99991 32902 ft 482 kts 121°
2026-05-05 14:21 50.94742 3.09365 32897 ft 481 kts 121°
2026-05-05 14:21 50.91593 3.18715 32887 ft 480 kts 121°
2026-05-05 14:22 50.88438 3.28030 32884 ft 480 kts 121°
2026-05-05 14:22 50.85272 3.37341 32877 ft 480 kts 121°
2026-05-05 14:23 50.82105 3.46619 32873 ft 479 kts 121°
2026-05-05 14:23 50.78938 3.55862 32873 ft 478 kts 121°
2026-05-05 14:24 50.75793 3.65018 32872 ft 476 kts 121°
2026-05-05 14:24 50.72608 3.74263 32856 ft 476 kts 121°
2026-05-05 14:25 50.69437 3.83428 32874 ft 475 kts 121°
2026-05-05 14:25 50.66259 3.92571 32872 ft 475 kts 121°
2026-05-05 14:26 50.63103 4.01624 32879 ft 475 kts 122°
2026-05-05 14:26 50.59912 4.10733 32871 ft 475 kts 122°
2026-05-05 14:27 50.56721 4.19819 32889 ft 474 kts 121°
2026-05-05 14:27 50.53522 4.28901 32882 ft 474 kts 121°
2026-05-05 14:28 50.50318 4.37964 32883 ft 474 kts 121°
2026-05-05 14:28 50.47107 4.47010 32886 ft 474 kts 121°
2026-05-05 14:29 50.43891 4.56038 32888 ft 474 kts 122°
2026-05-05 14:29 50.40660 4.65074 32867 ft 475 kts 122°
2026-05-05 14:30 50.37421 4.74100 32867 ft 476 kts 122°
2026-05-05 14:30 50.34168 4.83128 32870 ft 476 kts 122°
2026-05-05 14:31 50.30909 4.92155 32871 ft 476 kts 122°
2026-05-05 14:31 50.27645 5.01168 32856 ft 476 kts 122°
2026-05-05 14:32 50.24924 5.08651 32860 ft 478 kts 122°
2026-05-05 14:32 50.21630 5.17690 32861 ft 478 kts 122°
2026-05-05 14:33 50.18340 5.26678 32855 ft 475 kts 122°
2026-05-05 14:33 50.15058 5.35606 32845 ft 474 kts 122°
2026-05-05 14:34 50.11884 5.44578 32846 ft 472 kts 120°
2026-05-05 14:34 50.08846 5.53654 32852 ft 475 kts 121°
2026-05-05 14:35 50.05775 5.62804 32837 ft 476 kts 121°
2026-05-05 14:35 50.02742 5.71792 32814 ft 468 kts 121°
2026-05-05 14:36 49.99704 5.80703 32840 ft 468 kts 121°
2026-05-05 14:36 49.96612 5.89691 32854 ft 474 kts 121°
2026-05-05 14:37 49.93497 5.98734 32828 ft 475 kts 121°
2026-05-05 14:37 49.90381 6.07750 32842 ft 473 kts 121°
2026-05-05 14:38 49.87273 6.16720 32823 ft 472 kts 121°
2026-05-05 14:38 49.84173 6.25635 32824 ft 468 kts 121°
2026-05-05 14:39 49.81086 6.34477 32800 ft 465 kts 122°
2026-05-05 14:39 49.78002 6.43273 32826 ft 465 kts 121°
2026-05-05 14:40 49.74913 6.52062 32827 ft 465 kts 121°
2026-05-05 14:40 49.71814 6.60851 32829 ft 467 kts 121°
2026-05-05 14:41 49.68693 6.69672 32819 ft 469 kts 121°
2026-05-05 14:41 49.65560 6.78494 32812 ft 469 kts 122°
2026-05-05 14:42 49.62417 6.87315 32823 ft 469 kts 122°
2026-05-05 14:42 49.59268 6.96120 32825 ft 469 kts 122°
2026-05-05 14:43 49.56115 7.04907 32838 ft 469 kts 122°
2026-05-05 14:43 49.52953 7.13695 32836 ft 469 kts 122°
2026-05-05 14:44 49.49783 7.22460 32848 ft 469 kts 121°
2026-05-05 14:44 49.46613 7.31224 32846 ft 468 kts 122°
2026-05-05 14:45 49.43445 7.39939 32844 ft 467 kts 122°
2026-05-05 14:45 49.40263 7.48653 32852 ft 469 kts 122°
2026-05-05 14:46 49.37059 7.57404 32837 ft 471 kts 122°
2026-05-05 14:46 49.33861 7.66104 32819 ft 471 kts 122°
2026-05-05 14:47 49.30630 7.74866 33168 ft 472 kts 122°
2026-05-05 14:47 49.29023 7.79226 33630 ft 469 kts 122°
2026-05-05 14:47 49.27422 7.83558 34003 ft 466 kts 123°
2026-05-05 14:48 49.25822 7.87878 34208 ft 467 kts 123°
2026-05-05 14:48 49.24209 7.92205 34306 ft 470 kts 122°
2026-05-05 14:48 49.22586 7.96561 34471 ft 472 kts 122°
2026-05-05 14:48 49.20964 8.00922 34646 ft 472 kts 122°
2026-05-05 14:49 49.17692 8.09685 34787 ft 477 kts 123°
2026-05-05 14:49 49.14404 8.18457 34830 ft 474 kts 123°
2026-05-05 14:50 49.11135 8.27156 34842 ft 471 kts 123°
2026-05-05 14:50 49.07873 8.35804 34840 ft 469 kts 123°
2026-05-05 14:51 49.04613 8.44419 34850 ft 469 kts 123°
2026-05-05 14:51 49.01315 8.52983 34847 ft 468 kts 126°
2026-05-05 14:52 48.97197 8.60594 34869 ft 466 kts 137°
2026-05-05 14:52 48.92279 8.67030 34856 ft 467 kts 143°
2026-05-05 14:53 48.87145 8.73128 34854 ft 469 kts 144°
2026-05-05 14:53 48.82008 8.79253 34840 ft 470 kts 144°
2026-05-05 14:54 48.76907 8.85365 34856 ft 470 kts 143°
2026-05-05 14:54 48.71773 8.91514 34857 ft 471 kts 144°
2026-05-05 14:55 48.66623 8.97664 34871 ft 472 kts 144°
2026-05-05 14:55 48.61445 9.03828 34849 ft 474 kts 144°
2026-05-05 14:56 48.56276 9.09972 34834 ft 472 kts 144°
2026-05-05 14:56 48.51116 9.16086 34842 ft 471 kts 144°
2026-05-05 14:57 48.45954 9.22184 34850 ft 471 kts 144°
2026-05-05 14:57 48.40803 9.28255 34856 ft 470 kts 144°
2026-05-05 14:58 48.35654 9.34313 34848 ft 470 kts 144°
2026-05-05 14:58 48.30505 9.40347 34850 ft 469 kts 144°
2026-05-05 14:59 48.25017 9.45553 34854 ft 467 kts 156°
2026-05-05 14:59 48.19003 9.49144 34840 ft 465 kts 166°
2026-05-05 15:00 48.13814 9.51300 34842 ft 466 kts 167°
2026-05-05 15:00 48.06506 9.54418 34844 ft 468 kts 165°
2026-05-05 15:01 48.00479 9.58221 34846 ft 473 kts 155°
2026-05-05 15:01 47.94914 9.63425 34849 ft 478 kts 148°
2026-05-05 15:02 47.89461 9.69072 34848 ft 478 kts 148°
2026-05-05 15:02 47.83973 9.74699 34853 ft 478 kts 149°
2026-05-05 15:03 47.78488 9.80280 34837 ft 478 kts 150°
2026-05-05 15:03 47.72989 9.85849 34849 ft 478 kts 150°
2026-05-05 15:04 47.67482 9.91414 34858 ft 480 kts 150°
2026-05-05 15:04 47.61958 9.96986 34859 ft 480 kts 150°
2026-05-05 15:05 47.53653 10.05329 34868 ft 481 kts 151°
2026-05-05 15:06 47.48117 10.10875 34859 ft 480 kts 151°
2026-05-05 15:06 47.42584 10.16404 34868 ft 481 kts 151°
2026-05-05 15:07 47.37043 10.21928 34863 ft 479 kts 151°
2026-05-05 15:07 47.31507 10.27432 34869 ft 480 kts 152°
2026-05-05 15:08 47.26002 10.32887 34869 ft 481 kts 152°
2026-05-05 15:08 47.20451 10.38378 34847 ft 481 kts 151°
2026-05-05 15:09 47.14892 10.43861 34881 ft 482 kts 151°
2026-05-05 15:09 47.09298 10.49356 34867 ft 484 kts 152°
2026-05-05 15:10 47.03379 10.53876 34870 ft 477 kts 163°
2026-05-05 15:10 46.97113 10.56849 34907 ft 473 kts 168°
2026-05-05 15:11 46.90806 10.59630 34903 ft 473 kts 168°
2026-05-05 15:11 46.84513 10.62476 34905 ft 473 kts 167°
2026-05-05 15:12 46.78220 10.65300 34932 ft 473 kts 167°
2026-05-05 15:12 46.71917 10.68076 34955 ft 473 kts 169°
2026-05-05 15:13 46.65546 10.70210 34952 ft 469 kts 172°
2026-05-05 15:13 46.59167 10.72245 34940 ft 470 kts 172°
2026-05-05 15:14 46.52791 10.74315 34993 ft 469 kts 172°
2026-05-05 15:14 46.46397 10.76393 34997 ft 472 kts 172°
2026-05-05 15:15 46.39960 10.78487 34967 ft 475 kts 172°
2026-05-05 15:15 46.33505 10.80578 35021 ft 477 kts 172°
2026-05-05 15:16 46.27012 10.82681 35022 ft 479 kts 172°
2026-05-05 15:16 46.20501 10.84782 35008 ft 479 kts 172°
2026-05-05 15:17 46.13994 10.86856 35022 ft 477 kts 172°
2026-05-05 15:17 46.07572 10.88913 35014 ft 475 kts 172°
2026-05-05 15:18 46.01113 10.90983 35003 ft 476 kts 172°
2026-05-05 15:18 45.94640 10.93044 35004 ft 476 kts 172°
2026-05-05 15:19 45.88161 10.95100 35002 ft 477 kts 172°
2026-05-05 15:19 45.81793 10.97121 34754 ft 447 kts 172°
2026-05-05 15:19 45.78832 10.98066 34262 ft 427 kts 172°
2026-05-05 15:20 45.75979 10.98971 33479 ft 413 kts 173°
2026-05-05 15:20 45.73196 10.99844 32475 ft 407 kts 173°
2026-05-05 15:20 45.70448 11.00703 31421 ft 402 kts 173°
2026-05-05 15:20 45.67735 11.01557 30437 ft 397 kts 173°
2026-05-05 15:21 45.65046 11.02400 29219 ft 395 kts 173°
2026-05-05 15:21 45.62360 11.03192 27943 ft 393 kts 174°
2026-05-05 15:21 45.59676 11.03861 26727 ft 390 kts 175°
2026-05-05 15:21 45.57003 11.04487 25576 ft 388 kts 175°
2026-05-05 15:22 45.55238 11.04898 24860 ft 387 kts 175°
2026-05-05 15:22 45.52586 11.05519 23769 ft 386 kts 175°
2026-05-05 15:22 45.49945 11.06122 22528 ft 382 kts 178°
2026-05-05 15:22 45.47320 11.06346 21325 ft 374 kts 185°
2026-05-05 15:23 45.44757 11.06085 20152 ft 367 kts 190°
2026-05-05 15:23 45.42228 11.05717 19029 ft 363 kts 190°
2026-05-05 15:23 45.39728 11.05370 17887 ft 359 kts 190°
2026-05-05 15:23 45.37251 11.05030 16666 ft 356 kts 189°
2026-05-05 15:24 45.34800 11.04697 15495 ft 352 kts 189°
2026-05-05 15:24 45.32349 11.04367 14654 ft 357 kts 189°
2026-05-05 15:24 45.29871 11.04035 14113 ft 360 kts 189°
2026-05-05 15:24 45.27354 11.03697 13580 ft 368 kts 189°
2026-05-05 15:25 45.24787 11.03353 13040 ft 372 kts 188°
2026-05-05 15:25 45.22210 11.03013 12515 ft 371 kts 188°
2026-05-05 15:25 45.19655 11.02677 12001 ft 367 kts 188°
2026-05-05 15:25 45.17126 11.02348 11537 ft 363 kts 188°
2026-05-05 15:26 45.14627 11.02020 11113 ft 358 kts 188°
2026-05-05 15:26 45.12197 11.01702 10968 ft 345 kts 188°
2026-05-05 15:26 45.09853 11.01400 10827 ft 332 kts 188°
2026-05-05 15:26 45.07591 11.01104 10680 ft 321 kts 188°
2026-05-05 15:27 45.05399 11.00954 10399 ft 309 kts 181°
2026-05-05 15:27 45.03305 11.01199 10224 ft 297 kts 179°
2026-05-05 15:27 45.01290 11.01474 10084 ft 286 kts 179°
2026-05-05 15:27 44.99330 11.01727 9789 ft 281 kts 179°
2026-05-05 15:28 44.97392 11.01967 9455 ft 278 kts 179°
2026-05-05 15:28 44.95477 11.02198 9103 ft 275 kts 179°
2026-05-05 15:28 44.93581 11.02422 8767 ft 272 kts 179°
2026-05-05 15:28 44.91708 11.02639 8439 ft 269 kts 179°
2026-05-05 15:29 44.89857 11.02854 8116 ft 265 kts 179°
2026-05-05 15:29 44.88034 11.03063 7800 ft 261 kts 180°
2026-05-05 15:29 44.86235 11.03396 7259 ft 262 kts 172°
2026-05-05 15:29 44.84469 11.03981 6856 ft 259 kts 170°
2026-05-05 15:30 44.82733 11.04595 6515 ft 256 kts 170°
2026-05-05 15:30 44.81016 11.05195 6198 ft 253 kts 170°
2026-05-05 15:30 44.79311 11.05781 5891 ft 252 kts 170°
2026-05-05 15:30 44.77646 11.06346 5576 ft 247 kts 170°
2026-05-05 15:31 44.75989 11.06900 5284 ft 242 kts 170°
2026-05-05 15:31 44.74361 11.07437 4993 ft 238 kts 170°
2026-05-05 15:31 44.72761 11.07963 4694 ft 236 kts 169°
2026-05-05 15:31 44.71158 11.08486 4420 ft 237 kts 169°
2026-05-05 15:32 44.69541 11.09015 4204 ft 239 kts 169°
2026-05-05 15:32 44.67940 11.09535 4058 ft 232 kts 168°
2026-05-05 15:32 44.66389 11.10044 3776 ft 226 kts 168°
2026-05-05 15:32 44.64897 11.10527 3575 ft 215 kts 167°
2026-05-05 15:33 44.63450 11.10996 3267 ft 211 kts 167°
2026-05-05 15:33 44.62039 11.11455 2974 ft 205 kts 167°
2026-05-05 15:33 44.60679 11.11904 2717 ft 198 kts 162°
2026-05-05 15:33 44.59558 11.12948 2472 ft 197 kts 125°
2026-05-05 15:34 44.58817 11.14585 2254 ft 203 kts 121°
2026-05-05 15:34 44.58073 11.16280 1951 ft 203 kts 117°
2026-05-05 15:34 44.57450 11.17982 1727 ft 189 kts 115°
2026-05-05 15:34 44.56886 11.19564 1447 ft 173 kts 114°
2026-05-05 15:35 44.56376 11.20984 1213 ft 153 kts 113°
2026-05-05 15:35 44.55899 11.22311 1017 ft 154 kts 114°
2026-05-05 15:35 44.55417 11.23666 795 ft 157 kts 114°
2026-05-05 15:35 44.54927 11.25021 559 ft 155 kts 113°
2026-05-05 15:36 44.54438 11.26377 367 ft 158 kts 114°
2026-05-05 15:36 44.53938 11.27768 199 ft 161 kts 114°
2026-05-05 15:36 44.53463 11.29089 211 ft 153 kts 114°
2026-05-05 15:36 44.52983 11.30437 505 ft 157 kts 113°
2026-05-05 15:37 44.52566 11.31847 893 ft 155 kts 94°
2026-05-05 15:37 44.52697 11.33319 1247 ft 152 kts 68°
2026-05-05 15:37 44.53230 11.34608 1585 ft 157 kts 50°
2026-05-05 15:37 44.54125 11.35512 1857 ft 163 kts 17°
2026-05-05 15:38 44.55211 11.35980 2317 ft 167 kts 18°
2026-05-05 15:38 44.56318 11.36529 2900 ft 168 kts 19°
2026-05-05 15:38 44.57485 11.36894 3290 ft 176 kts 348°
2026-05-05 15:38 44.58541 11.36178 3800 ft 173 kts 312°
2026-05-05 15:39 44.59447 11.34759 4079 ft 224 kts 308°
2026-05-05 15:39 44.60534 11.33027 3970 ft 239 kts 309°
2026-05-05 15:39 44.61641 11.31258 3944 ft 242 kts 309°
2026-05-05 15:39 44.62754 11.29478 4019 ft 244 kts 309°
2026-05-05 15:40 44.63876 11.27668 4006 ft 245 kts 308°
2026-05-05 15:40 44.65009 11.25870 4008 ft 247 kts 309°
2026-05-05 15:40 44.66146 11.24060 4033 ft 248 kts 308°
2026-05-05 15:40 44.67273 11.22259 4034 ft 243 kts 308°
2026-05-05 15:41 44.68397 11.20490 4032 ft 243 kts 309°
2026-05-05 15:41 44.69524 11.18708 4025 ft 244 kts 309°
2026-05-05 15:41 44.70640 11.16908 4038 ft 245 kts 308°
2026-05-05 15:41 44.71767 11.15108 4040 ft 246 kts 309°
2026-05-05 15:42 44.72891 11.13291 4033 ft 247 kts 309°
2026-05-05 15:42 44.74015 11.11469 4029 ft 246 kts 309°
2026-05-05 15:42 44.75133 11.09660 4035 ft 244 kts 309°
2026-05-05 15:42 44.76403 11.08110 4031 ft 242 kts 327°
2026-05-05 15:43 44.77882 11.06951 4067 ft 246 kts 328°
2026-05-05 15:43 44.79396 11.05780 4033 ft 249 kts 328°
2026-05-05 15:43 44.80913 11.04616 4042 ft 248 kts 328°
2026-05-05 15:43 44.82423 11.03455 4043 ft 247 kts 328°
2026-05-05 15:44 44.83920 11.02264 3931 ft 246 kts 321°
2026-05-05 15:44 44.85025 11.00465 3702 ft 244 kts 292°
2026-05-05 15:44 44.85301 10.98171 3604 ft 236 kts 261°
2026-05-05 15:44 44.84694 10.96086 3560 ft 232 kts 229°
2026-05-05 15:45 44.83458 10.94632 3562 ft 236 kts 214°
2026-05-05 15:45 44.82010 10.93559 3523 ft 238 kts 191°
2026-05-05 15:45 44.80371 10.93769 3548 ft 242 kts 160°
2026-05-05 15:45 44.78873 10.94848 3509 ft 249 kts 149°
2026-05-05 15:46 44.77363 10.96189 3438 ft 261 kts 148°
2026-05-05 15:46 44.75833 10.97589 3292 ft 263 kts 147°
2026-05-05 15:46 44.74297 10.98998 3174 ft 264 kts 147°
2026-05-05 15:46 44.72775 11.00387 3027 ft 263 kts 147°
2026-05-05 15:47 44.71239 11.01783 2895 ft 263 kts 147°
2026-05-05 15:47 44.70202 11.02722 2810 ft 262 kts 147°
2026-05-05 15:47 44.68183 11.04541 2649 ft 259 kts 147°
2026-05-05 15:47 44.66665 11.05895 2606 ft 259 kts 147°
2026-05-05 15:48 44.65137 11.07253 2549 ft 261 kts 147°
2026-05-05 15:48 44.63595 11.08632 2535 ft 263 kts 147°
2026-05-05 15:48 44.62060 11.09998 2528 ft 257 kts 147°
2026-05-05 15:48 44.60573 11.11317 2515 ft 246 kts 146°
2026-05-05 15:49 44.59406 11.12861 2502 ft 218 kts 121°
2026-05-05 15:49 44.58660 11.14680 2202 ft 214 kts 117°
2026-05-05 15:49 44.57989 11.16487 1913 ft 204 kts 115°
2026-05-05 15:49 44.57379 11.18190 1662 ft 188 kts 114°
2026-05-05 15:50 44.56817 11.19756 1384 ft 171 kts 114°
2026-05-05 15:50 44.56315 11.21158 1174 ft 155 kts 114°
2026-05-05 15:50 44.55828 11.22516 966 ft 156 kts 114°
2026-05-05 15:50 44.55342 11.23868 752 ft 154 kts 114°
2026-05-05 15:51 44.54859 11.25206 545 ft 154 kts 114°
2026-05-05 15:51 44.54368 11.26570 361 ft 160 kts 114°
2026-05-05 15:51 44.53867 11.27962 150 ft 154 kts 114°
2026-05-05 15:51 44.53450 11.29132 130 ft 113 kts 117°
2026-05-05 15:52 44.53201 11.29823 128 ft 47 kts 117°
2026-05-05 15:52 44.53060 11.30213 127 ft 30 kts 117°
2026-05-05 15:52 44.52975 11.30344 126 ft 16 kts 174°
2026-05-05 15:52 44.52890 11.30301 125 ft 12 kts 210°
2026-05-05 15:53 44.52873 11.30190 131 ft 12 kts 279°
2026-05-05 15:53 44.52900 11.30095 126 ft 9 kts 300°
2026-05-05 15:53 44.52932 11.30020 127 ft 9 kts 298°
2026-05-05 15:53 44.52959 11.29940 133 ft 9 kts 296°
2026-05-05 15:54 44.52988 11.29861 129 ft 9 kts 296°
2026-05-05 15:54 44.53016 11.29782 133 ft 9 kts 296°
2026-05-05 15:54 44.53044 11.29703 128 ft 9 kts 297°
2026-05-05 15:54 44.53073 11.29624 135 ft 9 kts 297°
2026-05-05 15:55 44.53101 11.29545 129 ft 9 kts 297°
2026-05-05 15:55 44.53130 11.29467 129 ft 9 kts 297°
2026-05-05 15:55 44.53159 11.29388 135 ft 9 kts 297°
2026-05-05 15:55 44.53187 11.29309 133 ft 9 kts 297°
2026-05-05 15:56 44.53216 11.29231 135 ft 9 kts 297°
2026-05-05 15:56 44.53244 11.29151 133 ft 9 kts 296°
2026-05-05 15:56 44.53276 11.29060 130 ft 13 kts 296°
2026-05-05 15:56 44.53316 11.28950 130 ft 13 kts 297°
2026-05-05 15:57 44.53356 11.28843 135 ft 13 kts 297°
2026-05-05 15:57 44.53395 11.28732 130 ft 13 kts 296°
2026-05-05 15:57 44.53434 11.28621 135 ft 13 kts 296°
2026-05-05 15:57 44.53473 11.28511 129 ft 13 kts 297°
2026-05-05 15:58 44.53513 11.28401 129 ft 13 kts 297°
2026-05-05 15:58 44.53534 11.28316 130 ft 8 kts 253°
2026-05-05 15:58 44.53498 11.28281 132 ft 6 kts 206°
2026-05-05 15:58 44.53459 11.28253 131 ft 6 kts 207°
2026-05-05 15:59 44.53424 11.28228 135 ft 3 kts 207°
2026-05-05 15:59 44.53417 11.28224 135 ft 0 kts 207°
2026-05-05 15:59 44.53416 11.28223 135 ft 0 kts 207°